[[{"header":{"parameterUnit":"m.s-1","parameterCategory":1,"la1":30.2991,"la2":30.254,"lo1":-89.0895,"lo2":-89.0444,"dy":0.0017,"dx":0.0017,"nx":28,"ny":28,"refTime":"2023-07-22T09:00:00:Z","depth":0,"parameterNumber":2,"parameterNumberName":"U-component_of_WINDS"},"data":[0,0,0,0,0,0,0,0,0,0,0,0,0,0,0,0,0,0,0,0,0,0,0,0,0,0,0,0,0,0,0,0,0,0,0,0,0,0,0,0,0,0,0,0,0,0,0,0,0,0,0,0,0,0,0,0,0,0,3.1889,3.1891,0,3.2066,3.2068,3.207,3.1971,3.1966,3.1961,3.1957,3.2155,3.2164,3.2174,0,0,0,0,0,0,0,0,0,0,0,0,0,3.1473,3.1481,3.1888,3.1891,3.1893,3.2066,3.2068,3.2071,3.1972,3.1966,3.196,3.1954,3.2152,3.2163,3.2175,0,0,0,0,0,0,0,0,0,0,0,0,0,3.1653,3.1483,3.1888,3.1864,3.1864,3.2065,3.2069,3.2072,3.1973,3.1966,3.1958,3.1951,3.2148,3.2162,3.2177,3.2417,0,0,3.2222,3.2229,0,0,0,0,0,0,0,0,3.1642,3.1668,3.1865,3.1866,3.1866,3.1988,3.1994,3.2188,3.1975,3.1932,3.1956,3.1948,3.2107,3.2124,3.2175,3.2427,3.2435,3.2223,3.2232,3.2239,3.2243,0,0,0,0,0,0,0,3.163,3.166,3.1959,3.1868,3.1869,3.1847,3.1865,3.2031,3.206,3.1935,3.1929,3.195,3.2105,3.2161,3.2179,3.2438,3.2223,3.2236,3.2245,3.2251,3.2889,3.2897,0,0,0,0,0,0,3.1617,3.165,3.1954,3.1965,3.1733,3.1861,3.188,3.1957,3.2057,3.2065,3.1956,3.1945,3.2139,3.2161,3.2185,3.2469,3.2239,3.2253,3.2261,3.2881,3.2891,3.29,0,0,0,0,0,0,3.1609,3.1645,3.1946,3.1805,3.1842,3.1876,3.1963,3.1965,3.2019,3.2073,3.2079,3.2007,3.2134,3.2164,3.2358,3.2475,3.2259,3.2273,3.2872,3.2884,3.2895,3.3043,0,0,0,0,0,0,3.1597,3.1643,3.1734,3.1808,3.185,3.2114,3.197,3.1973,3.2043,3.203,3.2122,3.213,3.213,3.2336,3.2372,3.2492,3.2284,3.2862,3.2877,3.2892,3.3028,3.3058,3.3085,0,0,0,0,0,3.1583,3.1773,3.1739,3.1776,3.1963,3.2121,3.2146,3.2138,3.2053,3.2145,3.2178,3.2127,3.2455,3.2357,3.2397,3.2522,3.2854,3.2873,3.2891,3.3015,3.3052,3.3084,0,0,0,0,0,0,3.172,3.1783,3.1746,3.1965,3.2037,3.2104,3.2221,3.2178,3.2282,3.2266,3.2255,3.2277,3.2477,3.2519,3.2408,3.2757,3.2642,3.2669,3.2723,3.2759,3.2787,3.2774,3.2297,0,0,0,0,0,3.1774,3.1893,3.1943,3.2132,3.2169,3.2188,3.2257,3.2243,3.2321,3.2353,3.2401,3.2481,3.2601,3.2682,3.2797,3.3031,3.3049,3.3137,3.3165,3.3188,3.3213,3.3335,3.3374,3.2959,3.2959,3.2959,0,0,3.1891,3.1939,3.2017,3.216,3.2215,3.2341,3.2216,3.2356,3.245,3.2376,3.2559,3.2596,3.2685,3.2898,3.2995,3.294,3.333,3.3211,3.3229,3.3242,3.3358,3.3397,3.3432,3.2972,3.2969,3.2967,0,0,3.2167,3.2216,3.2375,3.2429,3.251,3.252,3.2558,3.2629,3.2648,3.283,3.2775,3.2888,3.3097,3.3161,3.3221,3.3509,3.3466,3.3547,3.3698,3.3817,3.385,3.3879,3.398,3.4017,3.3571,3.3571,3.3571,0,3.2303,3.2486,3.2464,3.2605,3.2669,3.2598,3.276,3.2816,3.2934,3.298,3.2914,3.3169,3.3225,3.3449,3.3518,3.357,3.3613,3.3539,3.3846,3.3875,3.3902,3.3998,3.4037,3.358,3.3579,3.3578,3.3577,0,3.2648,3.2776,3.2895,3.3,3.3077,3.3229,3.3231,3.3312,3.3289,3.3306,3.349,3.3552,3.3674,3.3726,3.371,3.3948,3.391,3.3845,3.373,3.3951,3.4041,3.4078,3.3594,3.359,3.3587,3.3585,0,0,3.3024,3.3106,3.3151,3.3194,3.3274,3.3374,3.352,3.3633,3.3702,3.3783,3.3906,3.4079,3.4016,3.4084,3.4072,3.4177,3.4398,3.4099,3.4101,3.4152,3.4661,3.471,3.4753,3.4367,3.4374,3.4379,3.4653,0,3.3303,3.3553,3.3533,3.3771,3.3887,3.3817,3.3944,3.4008,3.4026,3.4129,3.415,3.4271,3.4181,3.422,3.432,3.435,3.45,3.4329,3.4484,3.4489,3.4465,3.4801,3.4855,3.5111,3.4689,3.4695,3.4699,0,3.3665,3.3748,3.3996,3.405,3.4098,3.4213,3.431,3.4409,3.4479,3.4484,3.4554,3.4522,3.467,3.4548,3.4752,3.4636,3.4697,3.472,3.4729,3.4746,3.461,3.4827,3.5193,3.5231,3.4755,3.4751,3.4746,0,3.3911,3.4087,3.4255,3.4295,3.4364,3.4445,3.4478,3.4539,3.4606,3.4693,3.4735,3.4841,3.49,3.4982,3.498,3.4891,3.5186,3.5064,3.5196,3.5196,3.5265,3.5261,3.5647,3.5302,3.5302,3.5301,3.53,0,3.4227,3.4381,3.4365,3.447,3.4639,3.4614,3.4783,3.4808,3.4861,3.497,3.4917,3.5022,3.501,3.5116,3.5115,3.5283,3.531,3.532,3.5318,3.5325,3.5324,3.5368,3.535,3.5311,3.5309,3.5307,3.5305,0,3.4533,3.4529,3.4707,3.4753,3.4768,3.4891,3.4932,3.5031,3.5039,3.5178,3.5209,3.5225,3.5345,3.5348,3.549,3.5488,3.5693,3.5671,3.5668,3.5664,3.5795,3.5783,3.6224,3.628,3.5898,3.5902,3.5905,0,3.4735,3.485,3.4905,3.497,3.5006,3.5114,3.5178,3.5157,3.5227,3.5309,3.5398,3.5511,3.5601,3.5796,3.5823,3.5929,3.591,3.6056,3.5926,3.5928,3.5912,3.5905,3.5916,3.6084,3.6088,3.6091,3.6094,0,3.5094,3.5083,3.5175,3.5266,3.5342,3.5414,3.5481,3.5538,3.5524,3.5605,3.5723,3.5792,3.5929,3.6043,3.6143,3.618,3.6136,3.6133,3.6169,3.618,3.6172,3.6177,3.5738,3.6125,3.6122,3.612,3.6118,3.6117,3.5354,3.545,3.5501,3.5605,3.5649,3.5711,3.5803,3.5819,3.5916,3.6022,3.6003,3.6135,3.6196,3.6325,3.6369,3.6473,3.6423,3.6476,3.649,3.6503,3.6517,3.6153,3.6492,3.6491,3.649,3.6489,3.6489,0,3.5709,3.5735,3.583,3.5919,3.6,3.5941,3.6009,3.6082,3.6196,3.6254,3.634,3.6474,3.6581,3.6612,3.6716,3.6793,3.6775,3.6821,3.6817,3.6825,3.6557,3.6514,3.6833,3.6833,3.6833,3.6833,3.6833,3.6833,3.5903,3.6061,3.6056,3.6236,3.6262,3.6385,3.6429,3.6485,3.6529,3.6678,3.6764,3.6781,3.6828,3.6933,3.7029,3.7035,3.7076,3.7131,3.713,3.6879,3.6845,3.6812,3.6772,3.714,3.7141,3.739,3.7392,3.7394]},{"header":{"parameterUnit":"m.s-1","parameterCategory":1,"la1":30.2991,"la2":30.254,"lo1":-89.0895,"lo2":-89.0444,"dy":0.0017,"dx":0.0017,"nx":28,"ny":28,"refTime":"2023-07-22T09:00:00:Z","depth":0,"parameterNumber":3,"parameterNumberName":"V-component_of_WINDS"},"data":[0,0,0,0,0,0,0,0,0,0,0,0,0,0,0,0,0,0,0,0,0,0,0,0,0,0,0,0,0,0,0,0,0,0,0,0,0,0,0,0,0,0,0,0,0,0,0,0,0,0,0,0,0,0,0,0,0,0,5.6226,5.6226,0,5.6254,5.6255,5.6255,5.6087,5.6082,5.6077,5.6072,5.6107,5.6112,5.6117,0,0,0,0,0,0,0,0,0,0,0,0,0,5.6026,5.6031,5.6226,5.6226,5.6227,5.6254,5.6255,5.6255,5.6087,5.6082,5.6076,5.607,5.6105,5.6111,5.6118,0,0,0,0,0,0,0,0,0,0,0,0,0,5.609,5.6033,5.6226,5.6146,5.6139,5.6254,5.6255,5.6255,5.6089,5.6081,5.6074,5.6067,5.6103,5.6111,5.6119,5.6313,0,0,5.6143,5.6147,0,0,0,0,0,0,0,0,5.6087,5.6098,5.6157,5.6152,5.6144,5.6159,5.6197,5.6275,5.6091,5.6108,5.6072,5.6064,5.613,5.6136,5.6157,5.6315,5.6316,5.6144,5.6149,5.6152,5.6155,0,0,0,0,0,0,0,5.6083,5.6096,5.6237,5.6159,5.6151,5.6109,5.611,5.6211,5.616,5.6106,5.6094,5.6099,5.6125,5.615,5.6157,5.6317,5.6144,5.6151,5.6156,5.6159,5.6629,5.6636,0,0,0,0,0,0,5.6088,5.6093,5.6236,5.6238,5.6097,5.6119,5.612,5.6162,5.6158,5.615,5.6105,5.6091,5.6139,5.6147,5.6157,5.638,5.6152,5.616,5.6165,5.6621,5.663,5.6639,0,0,0,0,0,0,5.6085,5.6103,5.6235,5.6162,5.6176,5.613,5.6179,5.6166,5.619,5.6157,5.6148,5.614,5.6134,5.6146,5.6274,5.6379,5.6164,5.6171,5.6612,5.6624,5.6635,5.6831,0,0,0,0,0,0,5.608,5.6103,5.6176,5.6165,5.618,5.6352,5.6185,5.6172,5.6204,5.6186,5.6187,5.618,5.6129,5.6263,5.6282,5.6386,5.6177,5.6603,5.6618,5.6631,5.6815,5.6848,5.6876,0,0,0,0,0,5.6073,5.6233,5.6181,5.6199,5.6271,5.6358,5.6367,5.6304,5.6214,5.6287,5.6264,5.618,5.6365,5.6277,5.6297,5.6406,5.6596,5.6613,5.663,5.6801,5.6841,5.6875,0,0,0,0,0,0,5.6261,5.623,5.6172,5.6333,5.6349,5.633,5.642,5.6349,5.6393,5.6375,5.6296,5.6297,5.6438,5.6435,5.6338,5.6591,5.6464,5.6486,5.6588,5.6625,5.6655,5.6653,5.6184,0,0,0,0,0,5.6321,5.6393,5.6363,5.6507,5.6518,5.6468,5.6504,5.6453,5.6467,5.6474,5.6461,5.648,5.654,5.6583,5.6638,5.6814,5.6809,5.6898,5.6928,5.6954,5.6973,5.7061,5.7099,5.6695,5.6695,5.6695,0,0,5.6446,5.6438,5.6489,5.6544,5.6551,5.6627,5.6475,5.6564,5.6619,5.6488,5.6606,5.6598,5.6612,5.6763,5.6829,5.6765,5.7083,5.6975,5.6996,5.7002,5.7082,5.7121,5.7155,5.6707,5.6705,5.6703,0,0,5.6711,5.6714,5.6831,5.684,5.685,5.6815,5.6844,5.6834,5.6822,5.6939,5.6841,5.6906,5.7015,5.7027,5.7048,5.7313,5.7235,5.7333,5.7492,5.7579,5.761,5.7638,5.7729,5.7763,5.7353,5.7354,5.7354,0,5.6865,5.6975,5.6902,5.6995,5.702,5.6902,5.702,5.7032,5.7062,5.7082,5.7009,5.7139,5.7141,5.7291,5.7355,5.7377,5.7405,5.7332,5.7611,5.7638,5.7663,5.7749,5.7784,5.7365,5.7364,5.7363,5.7362,0,5.7162,5.7239,5.7333,5.736,5.7397,5.7503,5.7444,5.749,5.7436,5.7408,5.7526,5.7524,5.7574,5.7606,5.7556,5.7748,5.7707,5.7625,5.7495,5.7714,5.7793,5.7826,5.7382,5.7377,5.7374,5.7371,0,0,5.7549,5.7529,5.7565,5.7573,5.7574,5.7632,5.7731,5.7777,5.7816,5.784,5.7919,5.8011,5.7932,5.7956,5.7906,5.7982,5.8186,5.7889,5.7888,5.7942,5.8394,5.8455,5.8494,5.8135,5.8141,5.8146,5.8392,0,5.7804,5.797,5.7904,5.8075,5.8143,5.803,5.8115,5.8125,5.8101,5.8156,5.8129,5.8194,5.8088,5.8101,5.8171,5.8147,5.8276,5.8129,5.8207,5.8211,5.8205,5.8536,5.8601,5.8833,5.8422,5.8428,5.8432,0,5.8126,5.8157,5.8334,5.8317,5.8344,5.8422,5.8455,5.851,5.8517,5.8494,5.8518,5.8449,5.8543,5.8415,5.8543,5.8444,5.8472,5.8465,5.8472,5.8476,5.8333,5.8546,5.8906,5.894,5.848,5.8476,5.8473,0,5.8384,5.8472,5.8587,5.8599,5.8584,5.864,5.8637,5.8637,5.8667,5.8698,5.8716,5.8759,5.8782,5.8816,5.876,5.8672,5.8894,5.8762,5.8876,5.8878,5.8927,5.8925,5.9295,5.895,5.895,5.8949,5.8948,0,5.8675,5.8787,5.8702,5.8774,5.8894,5.8818,5.894,5.8924,5.8924,5.899,5.8896,5.8959,5.8882,5.8938,5.8895,5.9005,5.9017,5.9,5.8987,5.9007,5.9009,5.9024,5.9005,5.8958,5.8956,5.8954,5.8953,0,5.8985,5.8933,5.9051,5.9025,5.9021,5.9111,5.9089,5.9153,5.9121,5.9205,5.922,5.9171,5.9231,5.9178,5.9238,5.9208,5.9353,5.9319,5.935,5.934,5.9456,5.9444,5.9846,5.9893,5.9521,5.9525,5.9528,0,5.9173,5.9255,5.9237,5.9272,5.9274,5.9334,5.9362,5.929,5.9324,5.9336,5.9398,5.945,5.9487,5.9589,5.9559,5.9603,5.9566,5.9704,5.9573,5.9589,5.9565,5.956,5.9566,5.973,5.9735,5.9739,5.9741,0,5.9511,5.9479,5.9524,5.9559,5.9595,5.962,5.9637,5.9672,5.9597,5.964,5.9699,5.9728,5.9785,5.9838,5.9871,5.9867,5.9792,5.9783,5.9811,5.9832,5.9845,5.9836,5.942,5.9774,5.9771,5.9768,5.9767,5.9765,5.9762,5.9828,5.9824,5.9876,5.988,5.9897,5.9955,5.9928,5.9975,6.0015,5.997,6.0041,6.0043,6.0079,6.0084,6.0138,6.0081,6.0123,6.0133,6.0144,6.0159,5.9838,6.0145,6.0144,6.0143,6.0142,6.0141,0,6.0091,6.0082,6.013,6.0155,6.0195,6.0118,6.0133,6.0171,6.0234,6.0241,6.0279,6.0345,6.0394,6.0366,6.0407,6.0456,6.0423,6.0469,6.0464,6.0464,6.021,6.018,6.0496,6.0496,6.0496,6.0495,6.0495,6.0495,6.0267,6.0373,6.0341,6.0448,6.0438,6.0505,6.0519,6.0534,6.0538,6.0615,6.0654,6.0635,6.0627,6.0667,6.0708,6.0698,6.0717,6.0776,6.0754,6.0517,6.0482,6.0449,6.042,6.0782,6.0782,6.1003,6.1005,6.1007]}]]